Regional Weather Roundup
Issued by NWS Portland, ME

Home | Current Version | Previous Version | Text Only | Print | Product List | Glossary On
Versions: 1 2 3 4 5 6 7 8 9 10 11 12 13 14 15 16 17 18 19 20 21 22 23 24 25 26 27 28 29 30 31 32 33 34 35 36 37 38 39 40 41 42 43 44 45 46 47 48 49
000
ASUS41 KGYX 011105
RWRGYX
WEATHER ROUNDUP FOR MAINE AND NEW HAMPSHIRE
NATIONAL WEATHER SERVICE GRAY ME
700 AM EDT MON SEP 01 2014

MEZ002-005-006-010-012-015-018-020-021-024-026-027-029-011200-
MAINE

CITY           SKY/WX    TMP DP  RH WIND       PRES   REMARKS
PORTLAND       CLOUDY    69  68  96 CALM      29.96R FOG
SANFORD        PTCLDY    66  64  94 CALM      29.96S
BAR HARBOR     CLOUDY    66  66 100 CALM      29.95R VSB<1/4
WISCASSET      FOG       68  67  96 CALM      29.96R VSB 1/4
ROCKLAND       CLOUDY    66  66 100 CALM      29.93S VSB 1/4
FRYEBURG       CLEAR     65  64  97 VRB3      29.98R
LEWISTONAUBURN CLOUDY    70  66  88 CALM      29.96S
AUGUSTA        FOG       68  68 100 SW5       29.96R VSB<1/4
WATERVILLE     CLOUDY    70  68  94 CALM      29.92R VSB 3/4
BANGOR         CLOUDY    69  67  93 S3        29.95R FOG
GREENVILLE       N/A     66  64  93 CALM      29.95S
MILLINOCKET    SUNNY     67  64  90 CALM      29.94R FOG
HOULTON        CLOUDY    67  66  97 CALM      29.92S FOG
PRESQUE ISLE   CLOUDY    66  63  88 N6        29.93R
FRENCHVILLE    CLOUDY    61  60  97 NE3       29.95S
CARIBOU        CLOUDY    65  62  90 N9        29.93S
$$

NHZ002-005-008-009-011-012-014-011200-
NEW HAMPSHIRE

CITY           SKY/WX    TMP DP  RH WIND       PRES   REMARKS
PORTSMOUTH     MOCLDY    70  69  95 W7        29.96R
ROCHESTER      PTCLDY    70  68  93 CALM      29.97R
NASHUA         MOCLDY    70  69  96 CALM      29.99R
MANCHESTER     MOCLDY    69  69 100 CALM      29.97R FOG
CONCORD        FOG       64  64 100 CALM      29.99R VSB 1/4
LACONIA        CLEAR     66  64  94 SW3       29.97S
PLYMOUTH       FOG       65  65 100 CALM      29.99R VSB 1/4
BERLIN         NOT AVBL
WHITEFIELD     FOG       62  61  96 CALM      30.00R VSB<1/4
JAFFREY        NOT AVBL
LEBANON        FOG       66  64  93 CALM      29.99R VSB 1/4
MT WASHINGTON  FOG       50  50 100 NW33        N/A  VSB 0
$$

VTZ005-007-008-011200-
VERMONT

CITY           SKY/WX    TMP DP  RH WIND       PRES   REMARKS
ST JOHNSBURY     N/A     66  66 100 MISG      29.97R
MONTPELIER     CLEAR     61  61 100 CALM      30.03R FOG
BURLINGTON     MOCLDY    70  67  90 SW7       29.96R
$$

MAZ007-012-024-CTZ003-RIZ002-NYZ038-NYZ072-011200-
SOUTHERN NEW ENGLAND AND NY

CITY           SKY/WX    TMP DP  RH WIND       PRES   REMARKS
BOSTON         CLOUDY    73  69  87 W8        29.98R
WORCESTER      MOCLDY    68  67  96 W6        30.03S
NANTUCKET      CLOUDY    70  69  97 SW12      30.03R FOG
PROVIDENCE     CLOUDY    73  71  93 SW6       30.00S FOG
HARTFORD       CLOUDY    70  68  93 CALM      29.99S
ALBANY         FOG       71  69  93 CALM      30.01R VSB 1
NEW YORK CITY  CLOUDY    76  71  85 S3        30.00R
$$

ANZ081-ANZ082-ANZ150-NHZ014-MEZ023>029-011200-
COASTAL MARINE OBSERVATIONS

STATION/POSITION TIME  TEMP    WIND        PRES    WAVE
                       AIR SEA DIR/SP/G            HT/PER
                 (UTC) (F)     (DEG/KT/KT) (MB)    (FT/S)
MATINICUS ROCK   1000          180/  5/  5 1013.5R
PORTLAND WX BUOY 1050   64 60   CALM  /  2 1014.1R   3/ 6
WELLS            1000   71 58  290/  4/  8 1013.1R
ISLE OF SHOALS   1000   70     260/ 10/ 11 1013.9R
JEFFREYS LEDGE   1021      64                N/A     3/10
CASHES LEDGE BUO 1050   66 63              1013.6R   3/ 6
$$

.............KEY..............
   WCI - WIND CHILL
   TC  - TEMPERATURE IN CELSIUS
   VSB - VISIBILITY IN MILES
   HX  - HEAT INDEX
   FAIR- INDICATES FEW OR NO CLOUDS BELOW 12,000 FT, WITH NO
         SIGNIFICANT WEATHER AND/OR OBSTRUCTIONS TO VISIBILITY.




USA.gov is the U.S. government's official web portal to all federal, state and local government web resources and services.